Location: Central Falls
(41.8900°N, 71.3929°W)
Time: 03:14:17
(UTC+00:00)

Tiros 1 - Pass Details

Date: 09 December 2023
Orbit: 625 x 658 km, 48.4° (Epoch: 01 March)

Event Time Altitude Azimuth Distance (km) Brightness Sun altitude
Rises 05:58:16 0° 196° (SSW) 2,946 - -64.6°
Reaches altitude 10° 06:01:09 10° 178° (S) 2,047 - -64.2°
Maximum altitude 06:04:28 19° 134° (SE) 1,544 - -63.7°
Drops below altitude 10° 06:07:47 10° 89° (E) 2,066 - -63.2°
Sets 06:10:42 0° 72° (ENE) 2,985 - -62.8°
